Regional Weather Roundup
Issued by NWS Newport/Morehead, NC

Current Version | Previous Version | Graphics & Text | Print | Product List | Glossary Off
Versions: 1 2 3 4 5 6 7 8 9 10 11 12 13 14 15 16 17 18 19 20 21 22 23 24 25 26 27 28 29 30 31 32 33 34 35 36 37 38 39 40 41 42 43 44 45 46 47 48 49 50

000
ASUS42 KMHX 230310
RWRMHX
WEATHER ROUNDUP FOR EASTERN NORTH CAROLINA
NATIONAL WEATHER SERVICE NEWPORT/MOREHEAD CITY NC
1100 PM EDT WED OCT 22 2014

NOTE: "FAIR" INDICATES FEW OR NO CLOUDS BELOW 12,000 FEET
WITH NO SIGNIFICANT WEATHER AND/OR OBSTRUCTIONS TO VISIBILITY

NCZ015>017-031-032-045>047-102-103-230400-
NORTH COAST

CITY           SKY/WX    TMP DP  RH WIND       PRES   REMARKS
EDENTON        MOCLDY    55  48  77 NW9       29.94S
ELIZABETH CITY CLOUDY    57  48  72 NW15G25   29.92R
KITTY HAWK     CLOUDY    56  50  79 NW13G24   29.88R
MANTEO         CLOUDY    56  49  77 NW17G23   29.90R

$$

NCZ045>047-081-094-103-104-230400-
CENTRAL COAST

CITY           SKY/WX    TMP DP  RH WIND       PRES   REMARKS
FRISCO         CLOUDY    57  50  77 NW15G26   29.90S
SWANQUARTER      N/A     57 N/A N/A NW12G17   29.91S

$$

NCZ095-097-098-100-101-230400-
SOUTHERN COAST

CITY           SKY/WX    TMP DP  RH WIND       PRES   REMARKS
BEAUFORT       PTCLDY    58  48  69 NW17      29.97S
CEDAR ISLAND     N/A     59 N/A N/A NW23G33   29.97S
JACKSONVILLE   CLOUDY    56  46  69 W6        30.00R
PINEY ISLAND   CLEAR     60  48  64 NW21      29.95S
WILMINGTON     CLEAR     56  45  66 NW8       30.02R


$$

NCZ011>013-027>030-043-044-078>080-089-090>093-098-230400-
COASTAL PLAIN

CITY           SKY/WX    TMP DP  RH WIND       PRES   REMARKS
AHOSKIE        CLOUDY    54  46  74 NW5       29.97S
CLINTON        CLEAR     55  45  68 NW5       30.03R
ELIZABETHTOWN  CLEAR     56  43  63 NW7       30.04R
GOLDSBORO      PTCLDY    56  49  76 W6        29.99S
GREENVILLE     CLEAR     55  46  71 NW3       30.00S
HAVELOCK       PTCLDY    57  47  69 NW10      29.99R
KENANSVILLE    MOCLDY    54  43  67 W3        30.02S
KINSTON        CLEAR     55  47  74 NW3       30.00S
NEW BERN       PTCLDY    57  47  69 NW9       29.98F
RICHLANDS      CLOUDY    55  43  62 W3        30.01S
ROCKY MOUNT    CLEAR     54  46  74 NW5       30.00S
WASHINGTON     PTCLDY    54  47  75 NW5       29.97S
WHITEVILLE     CLEAR     54  44  67 CALM      30.04R

$$

AMZ130-135-150-152-154-156-158-170-250-252-270-ANZ085-086-088-633-658-670-230400-
MARINE OBSERVATIONS

STATION/POSITION TIME  TEMP    WIND        PRES    WAVE   SWELL
                       AIR SEA DIR/SP/G            HT/PER HT/PER
                 (UTC) (F)     (DEG/KT/KT) (MB)    (FT/S) (FT/S)
CHESAPEAKE LIGHT 0200   58     330/ 30/ 34 1010.8
64 E VA BEACH    0300   60 70  330/ 29/ 37 1007.8   10/ 8   3/15
DUCK             0300   57 68  320/ 21/ 25 1010.8
2 E DUCK         0300                        N/A     5/ 7
10 NE DUCK       0300      70                N/A     8/ 7   2/11
OREGON INLET     0300   57 64  300/ 15/ 23 1011.7
13E OREGON INLT  0300      72                N/A     7/ 6
HATTERAS CG      0300   59 66  320/ 24/ 27 1013.0
DIAMOND BUOY     0300   61     310/ 25/ 29 1012.0    6/ 6   2/ 9
17 S OCRACOKE    NOT AVBL
CAPE LOOKOUT     0200   60     330/ 21/ 24 1014.7
BEAUFORT LAB     0300   58 68  330/  7/ 13 1014.2
30 SE NEW RIVER  0300   66 75  330/ 25/ 31 1014.3    4/ 4
5 SE WRIGHTSVLE  0300   59 72  330/ 19/ 21   N/A
225 S CAPE HAT   0204   71 78  310/ 16/ 19 1014.3    6/ 7   3/10
41 SE CHARLESTON 0300   67 78  350/ 14/ 17 1016.9    4/ 6   2/10

$$



USA.gov is the U.S. government's official web portal to all federal, state and local government web resources and services.